FDX1307 KIND-CYUL

Flight info

Callsign FDX1307
Flight time N/A
Altitude 33000
Route MAREO5 BDOCK DCT CASIO DCT SRPEN DCT JHW DCT ART IMPAC4
Aircraft B77L/H-SDE1E2E3FGHIJ2J3J4J5M1RWXY/LB1D1

Departure

Time 2026-05-06 20:36
Airport Indianapolis International Airport (KIND)

Arrival

Time N/A
Airport Montreal / Pierre Elliott Trudeau International Airport (CYUL)
Time Latitude Longitude Altitude Speed Heading
2026-05-06 20:23 39.71664 -86.27816 801 ft 0 kts 132°
2026-05-06 20:26 39.71676 -86.27833 801 ft 4 kts 138°
2026-05-06 20:26 39.71693 -86.27851 801 ft 4 kts 116°
2026-05-06 20:27 39.71697 -86.27873 801 ft 4 kts 86°
2026-05-06 20:27 39.71691 -86.27898 801 ft 4 kts 43°
2026-05-06 20:27 39.71673 -86.27918 801 ft 1 kts 44°
2026-05-06 20:27 39.71670 -86.27922 801 ft 1 kts 44°
2026-05-06 20:30 39.71704 -86.27878 802 ft 11 kts 44°
2026-05-06 20:31 39.71742 -86.27831 803 ft 11 kts 45°
2026-05-06 20:31 39.71804 -86.27774 804 ft 11 kts
2026-05-06 20:31 39.71870 -86.27829 806 ft 13 kts 315°
2026-05-06 20:31 39.71971 -86.27961 805 ft 20 kts 314°
2026-05-06 20:32 39.72072 -86.28093 803 ft 21 kts 314°
2026-05-06 20:32 39.72139 -86.28182 802 ft 21 kts 315°
2026-05-06 20:32 39.72239 -86.28312 802 ft 21 kts 315°
2026-05-06 20:32 39.72339 -86.28444 802 ft 21 kts 314°
2026-05-06 20:33 39.72433 -86.28584 802 ft 21 kts 304°
2026-05-06 20:33 39.72510 -86.28740 802 ft 21 kts 302°
2026-05-06 20:33 39.72585 -86.28897 801 ft 21 kts 302°
2026-05-06 20:33 39.72661 -86.29056 797 ft 21 kts 302°
2026-05-06 20:34 39.72727 -86.29174 795 ft 13 kts 311°
2026-05-06 20:34 39.72749 -86.29204 796 ft 0 kts 314°
2026-05-06 20:34 39.72750 -86.29205 796 ft 2 kts 314°
2026-05-06 20:35 39.72784 -86.29259 795 ft 9 kts 302°
2026-05-06 20:35 39.72788 -86.29342 793 ft 10 kts 241°
2026-05-06 20:35 39.72727 -86.29427 791 ft 22 kts 225°
2026-05-06 20:35 39.72479 -86.29742 785 ft 84 kts 224°
2026-05-06 20:36 39.71903 -86.30474 773 ft 145 kts 225°
2026-05-06 20:36 39.71071 -86.31537 814 ft 183 kts 227°
2026-05-06 20:36 39.70180 -86.32698 1374 ft 181 kts 230°
2026-05-06 20:36 39.69331 -86.33913 2025 ft 182 kts 232°
2026-05-06 20:37 39.68502 -86.35150 2620 ft 184 kts 232°
2026-05-06 20:37 39.67634 -86.36434 3077 ft 196 kts 226°
2026-05-06 20:37 39.66320 -86.37196 3231 ft 225 kts 183°
2026-05-06 20:37 39.64760 -86.36563 3500 ft 251 kts 142°
2026-05-06 20:38 39.63771 -86.34684 4044 ft 260 kts 104°
2026-05-06 20:38 39.63781 -86.32364 4715 ft 259 kts 75°
2026-05-06 20:38 39.64300 -86.30130 5366 ft 265 kts 70°
2026-05-06 20:38 39.64892 -86.27818 5960 ft 276 kts 70°
2026-05-06 20:39 39.65507 -86.25411 6592 ft 285 kts 70°
2026-05-06 20:39 39.66128 -86.22933 7254 ft 292 kts 71°
2026-05-06 20:39 39.66750 -86.20386 7904 ft 301 kts 71°
2026-05-06 20:39 39.67430 -86.17775 8514 ft 309 kts 67°
2026-05-06 20:40 39.68254 -86.15138 9165 ft 316 kts 66°
2026-05-06 20:40 39.69073 -86.12455 9793 ft 324 kts 68°
2026-05-06 20:40 39.69846 -86.09704 10296 ft 335 kts 69°
2026-05-06 20:40 39.70620 -86.06727 10475 ft 359 kts 71°
2026-05-06 20:41 39.71396 -86.03530 10661 ft 383 kts 72°
2026-05-06 20:41 39.72186 -86.00108 10867 ft 405 kts 73°
2026-05-06 20:41 39.72983 -85.96533 11333 ft 419 kts 73°
2026-05-06 20:41 39.73790 -85.92847 11930 ft 430 kts 74°
2026-05-06 20:42 39.74607 -85.89069 12637 ft 438 kts 74°
2026-05-06 20:42 39.75439 -85.85206 13379 ft 447 kts 74°
2026-05-06 20:42 39.76272 -85.81326 14043 ft 456 kts 74°
2026-05-06 20:42 39.77134 -85.77309 14706 ft 463 kts 74°
2026-05-06 20:43 39.78005 -85.73250 15410 ft 468 kts 73°
2026-05-06 20:43 39.78884 -85.69149 16131 ft 474 kts 73°
2026-05-06 20:43 39.79774 -85.64993 16826 ft 480 kts 73°
2026-05-06 20:43 39.80674 -85.60781 17520 ft 487 kts 73°
2026-05-06 20:44 39.81588 -85.56497 18206 ft 493 kts 72°
2026-05-06 20:44 39.82510 -85.52163 18797 ft 499 kts 73°
2026-05-06 20:44 39.83431 -85.47822 19326 ft 507 kts 73°
2026-05-06 20:44 39.84376 -85.43361 19829 ft 515 kts 73°
2026-05-06 20:45 39.85334 -85.38826 20336 ft 523 kts 73°
2026-05-06 20:45 39.86307 -85.34215 20864 ft 530 kts 74°
2026-05-06 20:45 39.87287 -85.29561 21383 ft 537 kts 75°
2026-05-06 20:45 39.88143 -85.24849 21877 ft 544 kts 80°
2026-05-06 20:46 39.88685 -85.19959 22393 ft 549 kts 88°
2026-05-06 20:46 39.88959 -85.14969 22933 ft 555 kts 89°
2026-05-06 20:46 39.89189 -85.09921 23431 ft 562 kts 90°
2026-05-06 20:46 39.89416 -85.04813 23869 ft 568 kts 90°
2026-05-06 20:47 39.89658 -84.99656 24344 ft 573 kts 90°
2026-05-06 20:47 39.89919 -84.94457 24846 ft 577 kts 89°
2026-05-06 20:47 39.90193 -84.89218 25342 ft 581 kts 89°
2026-05-06 20:47 39.90474 -84.83948 25810 ft 585 kts 89°
2026-05-06 20:48 39.90757 -84.78631 26258 ft 590 kts 89°
2026-05-06 20:48 39.91035 -84.73331 26692 ft 594 kts 89°
2026-05-06 20:48 39.91314 -84.67942 27135 ft 599 kts 89°
2026-05-06 20:48 39.91590 -84.62513 27561 ft 603 kts 89°
2026-05-06 20:49 39.91865 -84.57034 28008 ft 607 kts 89°
2026-05-06 20:49 39.92140 -84.51527 28442 ft 611 kts 89°
2026-05-06 20:49 39.92413 -84.45991 28880 ft 614 kts 89°
2026-05-06 20:49 39.92684 -84.40456 29304 ft 617 kts 89°
2026-05-06 20:50 39.92958 -84.34871 29854 ft 618 kts 88°
2026-05-06 20:50 39.93532 -84.29327 30361 ft 619 kts 77°
2026-05-06 20:50 39.94708 -84.23945 30827 ft 617 kts 68°
2026-05-06 20:50 39.96355 -84.18807 31283 ft 614 kts 59°
2026-05-06 20:51 39.98459 -84.13972 31681 ft 606 kts 48°
2026-05-06 20:51 40.00941 -84.09553 32110 ft 602 kts 45°
2026-05-06 20:51 40.03441 -84.05257 32538 ft 602 kts 45°
2026-05-06 20:51 40.05980 -84.00902 32942 ft 603 kts 45°
2026-05-06 20:52 40.08517 -83.96506 33026 ft 608 kts 45°
2026-05-06 20:52 40.13530 -83.87609 32997 ft 605 kts 46°
2026-05-06 20:53 40.18420 -83.78759 32997 ft 601 kts 46°
2026-05-06 20:53 40.23322 -83.69869 33009 ft 601 kts 46°
2026-05-06 20:54 40.28219 -83.60995 33012 ft 602 kts 46°
2026-05-06 20:54 40.33098 -83.52141 32999 ft 602 kts 46°
2026-05-06 20:55 40.38000 -83.43215 32990 ft 603 kts 46°
2026-05-06 20:55 40.42899 -83.34264 32997 ft 603 kts 46°
2026-05-06 20:56 40.47786 -83.25309 32988 ft 603 kts 46°
2026-05-06 20:56 40.52671 -83.16333 33005 ft 604 kts 46°
2026-05-06 20:57 40.57526 -83.07386 32996 ft 604 kts 46°
2026-05-06 20:57 40.62395 -82.98389 33001 ft 603 kts 46°
2026-05-06 20:58 40.67260 -82.89373 33000 ft 603 kts 47°
2026-05-06 20:58 40.72115 -82.80347 32993 ft 603 kts 47°
2026-05-06 20:59 40.76955 -82.71324 32980 ft 603 kts 47°
2026-05-06 20:59 40.81792 -82.62280 32974 ft 602 kts 47°
2026-05-06 21:00 40.86610 -82.53246 32973 ft 601 kts 47°
2026-05-06 21:00 40.90948 -82.43793 32969 ft 610 kts 58°
2026-05-06 21:01 40.94191 -82.33360 32974 ft 617 kts 70°
2026-05-06 21:01 40.96433 -82.22449 32979 ft 618 kts 73°
2026-05-06 21:02 40.98600 -82.11437 32973 ft 618 kts 73°
2026-05-06 21:02 41.00845 -82.00443 32976 ft 618 kts 72°
2026-05-06 21:03 41.03115 -81.89483 32975 ft 618 kts 72°
2026-05-06 21:03 41.05371 -81.78488 32959 ft 618 kts 72°
2026-05-06 21:04 41.07633 -81.67495 32959 ft 617 kts 70°
2026-05-06 21:04 41.10687 -81.57015 32949 ft 610 kts 59°
2026-05-06 21:05 41.14798 -81.47286 32964 ft 601 kts 51°
2026-05-06 21:05 41.19238 -81.37853 32986 ft 601 kts 51°
2026-05-06 21:06 41.23643 -81.28395 32969 ft 601 kts 51°